AAY208 KMYR-KALB

Flight info

Callsign AAY208
Flight time 1h 36m
Altitude 37000
Route ELLDE Q97 PAACK JAMIE Q133 JFK LLUND TRUDE/N0371F160 V487 BOWAN/N0375F170 V487 CANAN
Aircraft A320/M-SDE3FGHIRWY/LB1

Departure

Time 2026-05-04 22:38
Airport Myrtle Beach International Airport (KMYR)

Arrival

Time 2026-05-05 00:14
Airport Albany International Airport (KALB)
Time Latitude Longitude Altitude Speed Heading
2026-05-04 22:13 33.67992 -78.92485 32 ft 0 kts 79°
2026-05-04 22:17 33.67992 -78.92486 32 ft 0 kts 79°
2026-05-04 22:28 33.67992 -78.92488 32 ft 2 kts 79°
2026-05-04 22:28 33.67989 -78.92508 32 ft 2 kts 79°
2026-05-04 22:28 33.67986 -78.92528 32 ft 2 kts 79°
2026-05-04 22:28 33.67983 -78.92548 32 ft 2 kts 79°
2026-05-04 22:29 33.67980 -78.92568 32 ft 1 kts 79°
2026-05-04 22:29 33.67979 -78.92570 32 ft 0 kts 79°
2026-05-04 22:30 33.67979 -78.92569 32 ft 0 kts 79°
2026-05-04 22:30 33.67980 -78.92567 30 ft 1 kts 79°
2026-05-04 22:30 33.67999 -78.92543 32 ft 7 kts 13°
2026-05-04 22:30 33.68070 -78.92565 32 ft 13 kts 345°
2026-05-04 22:31 33.68153 -78.92589 32 ft 11 kts 347°
2026-05-04 22:31 33.68220 -78.92567 32 ft 10 kts 41°
2026-05-04 22:31 33.68290 -78.92563 32 ft 11 kts 349°
2026-05-04 22:31 33.68368 -78.92581 32 ft 12 kts 348°
2026-05-04 22:32 33.68452 -78.92603 32 ft 13 kts 348°
2026-05-04 22:32 33.68543 -78.92625 32 ft 14 kts 348°
2026-05-04 22:32 33.68642 -78.92650 32 ft 15 kts 348°
2026-05-04 22:32 33.68754 -78.92678 32 ft 18 kts 348°
2026-05-04 22:33 33.68884 -78.92710 32 ft 21 kts 348°
2026-05-04 22:33 33.69022 -78.92746 32 ft 20 kts 348°
2026-05-04 22:33 33.69151 -78.92778 33 ft 18 kts 348°
2026-05-04 22:33 33.69257 -78.92805 33 ft 10 kts 348°
2026-05-04 22:34 33.69294 -78.92847 33 ft 7 kts 272°
2026-05-04 22:34 33.69284 -78.92901 33 ft 6 kts 257°
2026-05-04 22:34 33.69276 -78.92942 31 ft 4 kts 257°
2026-05-04 22:34 33.69271 -78.92973 33 ft 3 kts 258°
2026-05-04 22:35 33.69267 -78.92993 33 ft 2 kts 258°
2026-05-04 22:35 33.69266 -78.93000 33 ft 0 kts 258°
2026-05-04 22:36 33.69265 -78.93005 33 ft 3 kts 258°
2026-05-04 22:36 33.69262 -78.93025 33 ft 2 kts 258°
2026-05-04 22:37 33.69258 -78.93051 33 ft 5 kts 258°
2026-05-04 22:37 33.69249 -78.93104 34 ft 8 kts 258°
2026-05-04 22:37 33.69201 -78.93138 34 ft 10 kts 169°
2026-05-04 22:37 33.69094 -78.93110 35 ft 36 kts 168°
2026-05-04 22:38 33.68600 -78.92988 32 ft 105 kts 168°
2026-05-04 22:38 33.67699 -78.92765 34 ft 157 kts 168°
2026-05-04 22:38 33.66581 -78.92486 537 ft 165 kts 169°
2026-05-04 22:38 33.65457 -78.92202 1298 ft 166 kts 165°
2026-05-04 22:39 33.64778 -78.91781 1773 ft 170 kts 141°
2026-05-04 22:39 33.64146 -78.90506 2188 ft 194 kts 102°
2026-05-04 22:39 33.64396 -78.88828 2500 ft 225 kts 62°
2026-05-04 22:39 33.65628 -78.87488 2858 ft 254 kts 25°
2026-05-04 22:40 33.67400 -78.86855 3377 ft 274 kts 11°
2026-05-04 22:40 33.69269 -78.86514 4294 ft 276 kts
2026-05-04 22:40 33.71170 -78.86249 5307 ft 274 kts
2026-05-04 22:40 33.73068 -78.85978 6267 ft 276 kts
2026-05-04 22:41 33.74981 -78.85650 7132 ft 280 kts
2026-05-04 22:41 33.76912 -78.85256 8016 ft 282 kts
2026-05-04 22:41 33.78845 -78.84817 8892 ft 285 kts
2026-05-04 22:41 33.80794 -78.84344 9745 ft 287 kts
2026-05-04 22:42 33.82769 -78.83852 10393 ft 298 kts
2026-05-04 22:42 33.84880 -78.83341 10648 ft 321 kts
2026-05-04 22:42 33.87142 -78.82803 10953 ft 340 kts
2026-05-04 22:42 33.89493 -78.82241 11582 ft 347 kts
2026-05-04 22:43 33.91872 -78.81666 12324 ft 350 kts
2026-05-04 22:43 33.94273 -78.81079 13067 ft 353 kts
2026-05-04 22:43 33.96693 -78.80484 13744 ft 357 kts
2026-05-04 22:43 33.99143 -78.79881 14376 ft 362 kts
2026-05-04 22:44 34.01626 -78.79274 14997 ft 366 kts
2026-05-04 22:44 34.04140 -78.78662 15631 ft 370 kts
2026-05-04 22:44 34.06675 -78.78045 16224 ft 374 kts
2026-05-04 22:44 34.09242 -78.77417 16811 ft 378 kts
2026-05-04 22:45 34.11832 -78.76782 17377 ft 382 kts
2026-05-04 22:45 34.17097 -78.75492 18481 ft 390 kts
2026-05-04 22:45 34.19769 -78.74837 19019 ft 394 kts
2026-05-04 22:46 34.22471 -78.74176 19554 ft 398 kts
2026-05-04 22:46 34.25192 -78.73507 20094 ft 401 kts
2026-05-04 22:46 34.27939 -78.72829 20613 ft 405 kts
2026-05-04 22:46 34.30711 -78.72145 21118 ft 409 kts
2026-05-04 22:47 34.33513 -78.71449 21618 ft 412 kts
2026-05-04 22:47 34.36332 -78.70749 22085 ft 416 kts
2026-05-04 22:47 34.39141 -78.69808 22537 ft 423 kts 17°
2026-05-04 22:47 34.41827 -78.68265 22966 ft 432 kts 27°
2026-05-04 22:48 34.44309 -78.66157 23382 ft 439 kts 34°
2026-05-04 22:48 34.46743 -78.63899 23793 ft 442 kts 34°
2026-05-04 22:48 34.49197 -78.61627 24192 ft 445 kts 34°
2026-05-04 22:48 34.51636 -78.59372 24568 ft 448 kts 33°
2026-05-04 22:49 34.54124 -78.57076 24934 ft 451 kts 33°
2026-05-04 22:49 34.56660 -78.54737 25298 ft 454 kts 33°
2026-05-04 22:49 34.59149 -78.52432 25652 ft 457 kts 33°
2026-05-04 22:49 34.61679 -78.50082 26000 ft 460 kts 33°
2026-05-04 22:50 34.64223 -78.47717 26341 ft 462 kts 33°
2026-05-04 22:50 34.66781 -78.45337 26679 ft 464 kts 33°
2026-05-04 22:50 34.69349 -78.42945 27010 ft 467 kts 33°
2026-05-04 22:50 34.71932 -78.40542 27320 ft 469 kts 33°
2026-05-04 22:51 34.74534 -78.38120 27620 ft 471 kts 33°
2026-05-04 22:51 34.77143 -78.35691 27918 ft 474 kts 33°
2026-05-04 22:51 34.79766 -78.33247 28206 ft 476 kts 33°
2026-05-04 22:51 34.82399 -78.30792 28484 ft 478 kts 33°
2026-05-04 22:52 34.85047 -78.28320 28751 ft 480 kts 33°
2026-05-04 22:52 34.87698 -78.25841 28996 ft 482 kts 33°
2026-05-04 22:52 34.90367 -78.23345 29239 ft 484 kts 33°
2026-05-04 22:52 34.93042 -78.20842 29464 ft 486 kts 33°
2026-05-04 22:53 34.95729 -78.18324 29700 ft 488 kts 33°
2026-05-04 22:53 34.98429 -78.15792 29913 ft 490 kts 33°
2026-05-04 22:53 35.01137 -78.13248 30124 ft 492 kts 33°
2026-05-04 22:53 35.03852 -78.10695 30363 ft 493 kts 33°
2026-05-04 22:54 35.06562 -78.08143 30663 ft 492 kts 33°
2026-05-04 22:54 35.09271 -78.05591 30933 ft 492 kts 33°
2026-05-04 22:54 35.11977 -78.03045 31211 ft 491 kts 33°
2026-05-04 22:54 35.14683 -78.00492 31483 ft 491 kts 33°
2026-05-04 22:55 35.17382 -77.97941 31750 ft 490 kts 33°
2026-05-04 22:55 35.20085 -77.95386 31976 ft 492 kts 33°
2026-05-04 22:55 35.22792 -77.92826 32211 ft 492 kts 33°
2026-05-04 22:55 35.25499 -77.90265 32467 ft 492 kts 33°
2026-05-04 22:56 35.28202 -77.87705 32732 ft 491 kts 33°
2026-05-04 22:56 35.30904 -77.85146 33000 ft 491 kts 32°
2026-05-04 22:56 35.33599 -77.82593 33252 ft 490 kts 33°
2026-05-04 22:56 35.36296 -77.80035 33512 ft 490 kts 33°
2026-05-04 22:57 35.38985 -77.77480 33759 ft 489 kts 33°
2026-05-04 22:57 35.41672 -77.74925 34012 ft 489 kts 32°
2026-05-04 22:57 35.44358 -77.72368 34260 ft 489 kts 32°
2026-05-04 22:57 35.47039 -77.69813 34515 ft 488 kts 32°
2026-05-04 22:58 35.49721 -77.67255 34750 ft 488 kts 32°
2026-05-04 22:58 35.52399 -77.64696 34963 ft 488 kts 32°
2026-05-04 22:58 35.55080 -77.62128 35165 ft 489 kts 32°
2026-05-04 22:58 35.57762 -77.59560 35364 ft 489 kts 32°
2026-05-04 22:59 35.60442 -77.56994 35554 ft 489 kts 32°
2026-05-04 22:59 35.63131 -77.54422 35750 ft 489 kts 32°
2026-05-04 22:59 35.65814 -77.51854 35942 ft 489 kts 32°
2026-05-04 22:59 35.68494 -77.49284 36113 ft 489 kts 32°
2026-05-04 23:00 35.71179 -77.46703 36285 ft 489 kts 32°
2026-05-04 23:00 35.73859 -77.44126 36448 ft 490 kts 32°
2026-05-04 23:00 35.76548 -77.41536 36603 ft 491 kts 32°
2026-05-04 23:00 35.79235 -77.38946 36761 ft 491 kts 32°
2026-05-04 23:01 35.81921 -77.36355 36944 ft 490 kts 32°
2026-05-04 23:01 35.84604 -77.33768 37019 ft 489 kts 32°
2026-05-04 23:01 35.89955 -77.28608 37029 ft 487 kts 32°
2026-05-04 23:02 35.95451 -77.23857 37026 ft 478 kts 25°
2026-05-04 23:02 36.01129 -77.19583 37024 ft 478 kts 25°
2026-05-04 23:03 36.06758 -77.15346 37020 ft 476 kts 25°
2026-05-04 23:03 36.12403 -77.11075 37034 ft 476 kts 25°
2026-05-04 23:04 36.18048 -77.06796 37033 ft 476 kts 25°
2026-05-04 23:04 36.23691 -77.02511 37030 ft 476 kts 25°
2026-05-04 23:05 36.29334 -76.98221 37031 ft 476 kts 25°
2026-05-04 23:05 36.34978 -76.93926 37033 ft 476 kts 25°
2026-05-04 23:06 36.40622 -76.89628 37037 ft 475 kts 25°
2026-05-04 23:06 36.46260 -76.85330 37036 ft 476 kts 25°
2026-05-04 23:07 36.51890 -76.81014 37039 ft 476 kts 25°
2026-05-04 23:07 36.57519 -76.76696 37040 ft 475 kts 25°
2026-05-04 23:08 36.63148 -76.72375 37036 ft 475 kts 25°
2026-05-04 23:08 36.68774 -76.68054 37039 ft 474 kts 25°
2026-05-04 23:09 36.74386 -76.63735 37034 ft 474 kts 25°
2026-05-04 23:09 36.79993 -76.59409 37032 ft 474 kts 25°
2026-05-04 23:10 36.85599 -76.55063 37027 ft 474 kts 26°
2026-05-04 23:10 36.91165 -76.50755 37022 ft 473 kts 25°
2026-05-04 23:11 36.96760 -76.46416 37015 ft 473 kts 26°
2026-05-04 23:11 37.02346 -76.42067 37011 ft 473 kts 26°
2026-05-04 23:12 37.07922 -76.37720 37001 ft 471 kts 26°
2026-05-04 23:12 37.13487 -76.33387 36996 ft 470 kts 26°
2026-05-04 23:13 37.19047 -76.29055 36995 ft 470 kts 26°
2026-05-04 23:13 37.24596 -76.24713 36999 ft 470 kts 26°
2026-05-04 23:14 37.30140 -76.20365 37000 ft 469 kts 26°
2026-05-04 23:14 37.35671 -76.16021 37000 ft 469 kts 26°
2026-05-04 23:15 37.41191 -76.11675 37001 ft 468 kts 26°
2026-05-04 23:15 37.46703 -76.07325 37007 ft 467 kts 26°
2026-05-04 23:16 37.52207 -76.02979 37009 ft 467 kts 26°
2026-05-04 23:16 37.57703 -75.98633 37011 ft 466 kts 26°
2026-05-04 23:17 37.63185 -75.94272 37007 ft 466 kts 27°
2026-05-04 23:17 37.68613 -75.89783 37006 ft 467 kts 28°
2026-05-04 23:18 37.74020 -75.85242 37007 ft 467 kts 28°
2026-05-04 23:18 37.79437 -75.80713 37006 ft 466 kts 28°
2026-05-04 23:19 37.84860 -75.76209 37006 ft 466 kts 28°
2026-05-04 23:19 37.90277 -75.71710 37006 ft 466 kts 28°
2026-05-04 23:20 37.95690 -75.67199 37008 ft 465 kts 28°
2026-05-04 23:20 38.01093 -75.62678 37007 ft 465 kts 28°
2026-05-04 23:21 38.06487 -75.58150 37012 ft 465 kts 28°
2026-05-04 23:21 38.11844 -75.53650 37014 ft 465 kts 28°
2026-05-04 23:22 38.17235 -75.49127 37008 ft 464 kts 28°
2026-05-04 23:22 38.22620 -75.44604 37002 ft 464 kts 28°
2026-05-04 23:23 38.28288 -75.40938 36997 ft 452 kts 12°
2026-05-04 23:23 38.34362 -75.39346 36994 ft 444 kts
2026-05-04 23:24 38.40463 -75.38070 36989 ft 444 kts
2026-05-04 23:24 38.46564 -75.36778 36987 ft 444 kts
2026-05-04 23:25 38.52658 -75.35478 36985 ft 444 kts
2026-05-04 23:25 38.58748 -75.34169 36978 ft 443 kts
2026-05-04 23:26 38.64832 -75.32871 36972 ft 443 kts
2026-05-04 23:26 38.69892 -75.31795 36969 ft 444 kts
2026-05-04 23:27 38.75968 -75.30346 36964 ft 448 kts 11°
2026-05-04 23:27 38.81702 -75.27021 36965 ft 457 kts 24°
2026-05-04 23:28 38.87256 -75.23051 36966 ft 457 kts 24°
2026-05-04 23:28 38.92814 -75.19103 36966 ft 456 kts 24°
2026-05-04 23:29 38.98378 -75.15158 36963 ft 456 kts 24°
2026-05-04 23:29 39.03927 -75.11203 36968 ft 456 kts 24°
2026-05-04 23:30 39.09472 -75.07233 36968 ft 456 kts 24°
2026-05-04 23:30 39.15018 -75.03265 36974 ft 456 kts 24°
2026-05-04 23:31 39.20560 -74.99286 36972 ft 456 kts 24°
2026-05-04 23:31 39.26051 -74.95302 36972 ft 458 kts 27°
2026-05-04 23:32 39.31299 -74.90595 36972 ft 459 kts 30°
2026-05-04 23:32 39.36518 -74.85847 36967 ft 458 kts 30°
2026-05-04 23:33 39.41728 -74.81094 36963 ft 458 kts 31°
2026-05-04 23:33 39.46925 -74.76336 36968 ft 457 kts 30°
2026-05-04 23:34 39.52126 -74.71577 36966 ft 458 kts 30°
2026-05-04 23:34 39.57320 -74.66821 36965 ft 457 kts 31°
2026-05-04 23:35 39.62517 -74.62052 36959 ft 457 kts 30°
2026-05-04 23:35 39.67707 -74.57279 36961 ft 457 kts 31°
2026-05-04 23:36 39.72884 -74.52493 36959 ft 457 kts 31°
2026-05-04 23:36 39.78060 -74.47709 36956 ft 456 kts 30°
2026-05-04 23:37 39.83230 -74.42934 36951 ft 456 kts 31°
2026-05-04 23:37 39.88402 -74.38140 36954 ft 456 kts 30°
2026-05-04 23:38 39.93570 -74.33339 36954 ft 455 kts 30°
2026-05-04 23:38 39.98727 -74.28539 36955 ft 456 kts 31°
2026-05-04 23:39 40.03884 -74.23722 36956 ft 456 kts 31°
2026-05-04 23:39 40.09041 -74.18908 36952 ft 455 kts 31°
2026-05-04 23:40 40.14183 -74.14091 36944 ft 454 kts 31°
2026-05-04 23:40 40.19316 -74.09271 36944 ft 454 kts 31°
2026-05-04 23:41 40.24452 -74.04444 36949 ft 455 kts 31°
2026-05-04 23:41 40.29588 -73.99616 36944 ft 454 kts 31°
2026-05-04 23:42 40.34774 -73.94898 36938 ft 451 kts 24°
2026-05-04 23:42 40.40378 -73.91332 36929 ft 447 kts 20°
2026-05-04 23:43 40.46012 -73.87861 36925 ft 447 kts 20°
2026-05-04 23:43 40.51635 -73.84383 36917 ft 447 kts 20°
2026-05-04 23:44 40.57262 -73.80882 36921 ft 447 kts 20°
2026-05-04 23:44 40.63009 -73.77969 36911 ft 437 kts
2026-05-04 23:45 40.68927 -73.77412 36921 ft 427 kts 352°
2026-05-04 23:45 40.74855 -73.77726 36923 ft 426 kts 353°
2026-05-04 23:46 40.80801 -73.77953 36905 ft 430 kts 357°
2026-05-04 23:46 40.83779 -73.77434 36906 ft 437 kts
2026-05-04 23:46 40.86685 -73.76159 36903 ft 445 kts 19°
2026-05-04 23:47 40.89398 -73.74140 36902 ft 453 kts 31°
2026-05-04 23:47 40.91818 -73.71435 36896 ft 458 kts 38°
2026-05-04 23:47 40.96470 -73.65665 36889 ft 458 kts 38°
2026-05-04 23:48 41.01127 -73.59904 36892 ft 458 kts 38°
2026-05-04 23:48 41.05776 -73.54144 36890 ft 458 kts 38°
2026-05-04 23:49 41.10435 -73.48384 36885 ft 457 kts 38°
2026-05-04 23:49 41.15077 -73.42615 36890 ft 458 kts 38°
2026-05-04 23:50 41.19729 -73.36814 36890 ft 459 kts 38°
2026-05-04 23:50 41.24371 -73.30995 36904 ft 459 kts 38°
2026-05-04 23:51 41.29206 -73.25553 36800 ft 450 kts 25°
2026-05-04 23:51 41.31985 -73.23775 36542 ft 439 kts 13°
2026-05-04 23:51 41.34900 -73.22762 36291 ft 429 kts
2026-05-04 23:52 41.37854 -73.22445 35546 ft 423 kts 353°
2026-05-04 23:52 41.40759 -73.22874 34679 ft 418 kts 343°
2026-05-04 23:52 41.43537 -73.23939 33847 ft 415 kts 339°
2026-05-04 23:52 41.46289 -73.25114 32935 ft 415 kts 339°
2026-05-04 23:53 41.49049 -73.26282 31951 ft 417 kts 339°
2026-05-04 23:53 41.51820 -73.27446 30919 ft 419 kts 339°
2026-05-04 23:53 41.54603 -73.28611 30049 ft 418 kts 339°
2026-05-04 23:53 41.57352 -73.29758 29423 ft 411 kts 339°
2026-05-04 23:54 41.60070 -73.30895 28742 ft 407 kts 339°
2026-05-04 23:54 41.62753 -73.32026 28080 ft 403 kts 339°
2026-05-04 23:54 41.65414 -73.33153 27422 ft 399 kts 339°
2026-05-04 23:54 41.68048 -73.34276 26784 ft 396 kts 339°
2026-05-04 23:55 41.70660 -73.35391 26149 ft 393 kts 339°
2026-05-04 23:55 41.73221 -73.36485 25533 ft 390 kts 339°
2026-05-04 23:55 41.78353 -73.38670 24295 ft 384 kts 340°
2026-05-04 23:56 41.80890 -73.39748 23720 ft 382 kts 340°
2026-05-04 23:56 41.83449 -73.40834 23129 ft 379 kts 340°
2026-05-04 23:56 41.85919 -73.41886 22568 ft 377 kts 340°
2026-05-04 23:56 41.88407 -73.42948 22051 ft 374 kts 339°
2026-05-04 23:57 41.90917 -73.44017 21522 ft 372 kts 339°
2026-05-04 23:57 41.93375 -73.45065 21027 ft 369 kts 339°
2026-05-04 23:57 41.95784 -73.46094 20541 ft 367 kts 339°
2026-05-04 23:57 41.98204 -73.47129 20061 ft 364 kts 339°
2026-05-04 23:58 42.00608 -73.48157 19584 ft 361 kts 339°
2026-05-04 23:58 42.02990 -73.49176 19101 ft 358 kts 338°
2026-05-04 23:58 42.05355 -73.50189 18619 ft 356 kts 338°
2026-05-04 23:58 42.07712 -73.51200 18130 ft 355 kts 338°
2026-05-04 23:59 42.10116 -73.51966 17631 ft 357 kts 348°
2026-05-04 23:59 42.12612 -73.52111 17127 ft 362 kts 359°
2026-05-04 23:59 42.15112 -73.51733 16647 ft 362 kts
2026-05-04 23:59 42.17592 -73.51305 16293 ft 356 kts
2026-05-05 00:00 42.20050 -73.50899 15779 ft 355 kts
2026-05-05 00:00 42.20878 -73.50771 15646 ft 354 kts
2026-05-05 00:00 42.24853 -73.50104 15235 ft 342 kts
2026-05-05 00:00 42.27182 -73.49649 14957 ft 336 kts
2026-05-05 00:01 42.29512 -73.49150 14572 ft 333 kts
2026-05-05 00:01 42.31758 -73.48645 14176 ft 331 kts
2026-05-05 00:01 42.34021 -73.48128 13777 ft 329 kts
2026-05-05 00:01 42.36273 -73.47613 13377 ft 327 kts
2026-05-05 00:02 42.38513 -73.47104 12991 ft 325 kts
2026-05-05 00:02 42.40738 -73.46603 12586 ft 323 kts
2026-05-05 00:02 42.42935 -73.46526 12262 ft 306 kts 344°
2026-05-05 00:02 42.44914 -73.47265 11965 ft 288 kts 338°
2026-05-05 00:03 42.46802 -73.48097 11468 ft 283 kts 337°
2026-05-05 00:03 42.48668 -73.48921 10891 ft 281 kts 337°
2026-05-05 00:03 42.50520 -73.49732 10270 ft 279 kts 337°
2026-05-05 00:03 42.52366 -73.50540 9636 ft 279 kts 337°
2026-05-05 00:04 42.54220 -73.51342 8998 ft 280 kts 337°
2026-05-05 00:04 42.56073 -73.52133 8355 ft 279 kts 337°
2026-05-05 00:04 42.57937 -73.52931 7895 ft 280 kts 337°
2026-05-05 00:04 42.59788 -73.53720 7505 ft 279 kts 337°
2026-05-05 00:05 42.61635 -73.54510 7105 ft 278 kts 337°
2026-05-05 00:05 42.63474 -73.55294 6704 ft 277 kts 337°
2026-05-05 00:05 42.65308 -73.56073 6322 ft 274 kts 337°
2026-05-05 00:05 42.67124 -73.56846 5906 ft 274 kts 337°
2026-05-05 00:06 42.68945 -73.57621 5497 ft 273 kts 337°
2026-05-05 00:06 42.70745 -73.58391 5085 ft 270 kts 337°
2026-05-05 00:06 42.72542 -73.59165 4651 ft 271 kts 337°
2026-05-05 00:06 42.74331 -73.59952 4241 ft 270 kts 337°
2026-05-05 00:07 42.76113 -73.60745 3828 ft 269 kts 337°
2026-05-05 00:07 42.77890 -73.61546 3437 ft 268 kts 337°
2026-05-05 00:07 42.79649 -73.62351 3055 ft 266 kts 336°
2026-05-05 00:07 42.81394 -73.63153 2996 ft 264 kts 337°
2026-05-05 00:08 42.83129 -73.63968 3004 ft 264 kts 337°
2026-05-05 00:08 42.84859 -73.64791 3011 ft 263 kts 337°
2026-05-05 00:08 42.86590 -73.65625 3021 ft 264 kts 337°
2026-05-05 00:08 42.88326 -73.66462 3028 ft 264 kts 337°
2026-05-05 00:09 42.90060 -73.67301 3018 ft 265 kts 337°
2026-05-05 00:09 42.91778 -73.68195 3013 ft 262 kts 328°
2026-05-05 00:09 42.93098 -73.69804 3023 ft 252 kts 298°
2026-05-05 00:09 42.93632 -73.72015 3015 ft 240 kts 268°
2026-05-05 00:10 42.93272 -73.74089 3010 ft 216 kts 237°
2026-05-05 00:10 42.92227 -73.75424 3013 ft 206 kts 211°
2026-05-05 00:10 42.90968 -73.76339 3013 ft 204 kts 207°
2026-05-05 00:10 42.89737 -73.77152 3010 ft 191 kts 207°
2026-05-05 00:11 42.88558 -73.77922 3008 ft 185 kts 207°
2026-05-05 00:11 42.87395 -73.78681 2873 ft 186 kts 207°
2026-05-05 00:11 42.86227 -73.79442 2492 ft 183 kts 206°
2026-05-05 00:11 42.85098 -73.80173 2052 ft 177 kts 203°
2026-05-05 00:12 42.83954 -73.80676 1628 ft 170 kts 192°
2026-05-05 00:12 42.82846 -73.80807 1433 ft 150 kts 182°
2026-05-05 00:12 42.81842 -73.80770 1211 ft 141 kts 179°
2026-05-05 00:12 42.81202 -73.80752 1093 ft 137 kts 178°
2026-05-05 00:13 42.80256 -73.80716 988 ft 136 kts 175°
2026-05-05 00:13 42.79008 -73.80662 839 ft 135 kts 177°
2026-05-05 00:13 42.78072 -73.80617 688 ft 134 kts 176°
2026-05-05 00:13 42.77137 -73.80576 564 ft 136 kts 177°
2026-05-05 00:14 42.76205 -73.80536 351 ft 133 kts 178°
2026-05-05 00:14 42.75597 -73.80505 292 ft 122 kts 177°
2026-05-05 00:14 42.74925 -73.80477 286 ft 72 kts 178°
2026-05-05 00:14 42.74592 -73.80463 294 ft 28 kts 178°
2026-05-05 00:15 42.74419 -73.80456 292 ft 19 kts 178°
2026-05-05 00:15 42.74308 -73.80465 293 ft 13 kts 220°
2026-05-05 00:15 42.74317 -73.80589 293 ft 14 kts 312°
2026-05-05 00:15 42.74393 -73.80613 291 ft 10 kts 16°
2026-05-05 00:16 42.74455 -73.80607 292 ft 8 kts 358°
2026-05-05 00:16 42.74506 -73.80610 292 ft 7 kts 358°
2026-05-05 00:16 42.74552 -73.80613 291 ft 7 kts 357°
2026-05-05 00:16 42.74596 -73.80637 293 ft 8 kts 318°
2026-05-05 00:17 42.74626 -73.80707 288 ft 9 kts 317°
2026-05-05 00:17 42.74691 -73.80716 287 ft 9 kts
2026-05-05 00:17 42.74748 -73.80711 288 ft 7 kts
2026-05-05 00:17 42.74776 -73.80743 288 ft 5 kts 292°
2026-05-05 00:18 42.74776 -73.80785 293 ft 4 kts 247°
2026-05-05 00:18 42.74748 -73.80816 286 ft 6 kts 208°
2026-05-05 00:18 42.74736 -73.80819 286 ft 0 kts 189°